www.pogodaiklimat.ru

Погода и климат >> Архив погоды >> Пакистан >> Сиби


ПОГОДА в Сиби

  • Прогноз погоды в Сиби
  • Монитор погоды в Сиби

АРХИВ ПОГОДЫ в Сиби

Время (UTC), дата Ветер
(напр.,м/с)
 
Видим.   Явления Облачность Т
(С)
Тd
(С)
f
(%)
Тe
(С)
Тes
(С)
Комфортность P
(гПа)
Po
(гПа)
Тmin
(С)
Tmax
(С)
R
(мм)
R24
(мм)
S
(см)
12 11.06 штиль 0 10 км ясно +46.1 +15.5 17 +47 +55 опасность
перегрева
991.7 977.8 +48.1
15 11.06 СЗ 2 4000 м ясно +42.2 +17.1 23 +44 +44 опасность
перегрева
992.5 1000.0
18 11.06 СЗ 5 4000 м ясно +39.4 +16.5 26 +41 +41 опасность
перегрева
993.9 979.4
21 11.06 СЗ 4 4000 м ясно +37.2 +13.7 25 +38 +38 душно 993.7 979.1
00 12.06 СЗ 2 4000 м ясно +35.0 +12.9 26 +35 +35 очень
жарко
993.1 978.5
03 12.06 СЗ 2 10 км ясно +38.3 +14.9 25 +39 +45 очень
душно
994.2 979.9 +31.1 97
06 12.06 ЮЗ 2 10 км ясно +42.8 +12.7 17 +42 +62 опасность
перегрева
994.9 980.6
09 12.06 штиль 0 10 км ясно +45.6 +13.3 15 +45 +71 опасность
перегрева
993.4 1000.0
12 12.06 ЮВ 2 10 км {гроза} ясно +46.1 +15.5 17 +47 +53 опасность
перегрева
991.7 977.8 +48.0
15 12.06 СЗ 1 4000 м ясно +41.7 +16.3 23 +44 +44 опасность
перегрева
993.1 1000.0
18 12.06 штиль 0 4000 м ясно +37.8 +15.3 26 +39 +39 очень
душно
995.4 1000.0
21 12.06 штиль 0 4000 м ясно +35.6 +12.5 25 +36 +36 очень
жарко
995.3 980.6
00 13.06 штиль 0 4000 м ясно +33.3 +12.9 29 +34 +34 очень
жарко
994.7 980.0
03 13.06 штиль 0 10 км ясно +36.7 +12.9 24 +37 +44 очень
жарко
995.7 981.3 +29.5
06 13.06 СЗ 2 10 км ясно +40.6 +13.4 20 +41 +62 опасность
перегрева
999.9 1000.0
09 13.06 ЮВ 1 10 км ясно +43.3 +16.1 21 +45 +67 опасность
перегрева
998.0 1000.0
12 13.06 ЮВ 2 10 км ясно +45.0 +16.2 19 +47 +52 опасность
перегрева
995.9 981.9 +47.1
15 13.06 ЮЗ 2 4000 м ясно +40.6 +18.0 27 +44 +44 опасность
перегрева
996.7 982.3
18 13.06 штиль 0 4000 м ясно +36.7 +16.3 30 +39 +39 очень
душно
998.1 983.5
21 13.06 штиль 0 4000 м ясно +34.4 +16.6 35 +37 +37 очень
душно
997.6 1000.0
00 14.06 штиль 0 4000 м ясно +32.2 +15.2 36 +34 +34 душно 996.9 982.2
03 14.06 штиль 0 10 км ясно +35.6 +18.4 36 +40 +47 очень
душно
997.9 983.4 +29.0
06 14.06 штиль 0 10 км ясно +39.4 +16.5 26 +41 +68 опасность
перегрева
1000.1 1000.0
09 14.06 штиль 0 10 км ясно +42.8 +18.6 25 +46 +72 опасность
перегрева
997.4 1000.0
12 14.06 ЮЗ 2 10 км ясно +44.4 +18.8 23 +48 +53 опасность
перегрева
993.5 979.5 +46.0
15 14.06 ЮЗ 1 4000 м ясно +41.7 +17.4 25 +45 +45 опасность
перегрева
994.3 1000.0
18 14.06 штиль 0 4000 м ясно +38.3 +17.1 29 +41 +41 опасность
перегрева
995.6 981.1
21 14.06 штиль 0 4000 м ясно +36.1 +16.7 32 +39 +39 очень
душно
995.5 980.9
00 15.06 штиль 0 4000 м ясно +33.3 +16.3 36 +36 +36 очень
душно
994.9 980.2
03 15.06 штиль 0 10 км ясно +37.2 +16.0 29 +39 +47 очень
душно
996.0 981.8 +30.0
06 15.06 ЮЗ 1 10 км ясно +29.4 +16.5 46 +33 +56 опасность
солнечного
удара
999.6 1000.0
09 15.06 ЮЗ 1 10 км ясно +43.3 +17.2 22 +46 +68 опасность
перегрева
995.7 1000.0
12 15.06 ЮЗ 1 10 км ясно +44.4 +18.8 23 +48 +54 опасность
перегрева
993.5 979.5 +46.1
15 15.06 штиль 0 4000 м ясно +40.6 +16.9 25 +43 +43 опасность
перегрева
993.8 979.4
18 15.06 ЮЗ 1 4000 м ясно +37.8 +16.4 28 +40 +40 очень
душно
995.6 1000.0
21 15.06 ЮЗ 1 4000 м ясно +35.6 +13.7 27 +36 +36 очень
жарко
995.5 1000.0
00 16.06 ЮЗ 1 4000 м ясно +33.9 +13.7 30 +35 +35 очень
жарко
995.4 980.7
03 16.06 ЮЗ 1 10 км ясно +38.3 +13.7 23 +39 +45 очень
душно
996.5 982.2 +31.5
06 16.06 штиль 0 10 км ясно +40.6 +14.6 22 +41 +68 опасность
перегрева
999.2 1000.0
09 16.06 ЮЗ 1 10 км ясно +42.2 +15.9 22 +44 +66 опасность
перегрева
996.9 1000.0
12 16.06 ЮЗ 2 10 км ясно +43.9 +18.0 23 +47 +53 опасность
перегрева
994.5 980.5 +45.0
15 16.06 штиль 0 4000 м ясно +40.0 +16.2 25 +42 +42 опасность
перегрева
995.8 981.3
18 16.06 ЮЗ 1 4000 м ясно +37.2 +14.9 27 +38 +38 душно 997.2 1000.0
21 16.06 штиль 0 4000 м ясно +35.0 +12.9 26 +35 +35 очень
жарко
997.1 982.4
00 17.06 штиль 0 4000 м {ливн. осадки, дождь} ясно +32.8 +16.3 37 +36 +36 очень
душно
996.8 982.1
03 17.06 штиль 0 10 км ясно +36.7 +12.9 24 +37 +44 очень
жарко
998.4 984.0 +30.5
06 17.06 штиль 0 10 км ясно +40.6 +14.6 22 +41 +68 опасность
перегрева
999.2 1000.0
09 17.06 штиль 0 10 км ясно +42.8 +16.4 22 +45 +71 опасность
перегрева
995.9 1000.0
12 17.06 ЮЗ 1 10 км ясно +45.0 +16.2 19 +47 +53 опасность
перегрева
992.6 978.6 +46.5
15 17.06 штиль 0 4000 м ясно +41.1 +15.5 22 +42 +42 опасность
перегрева
993.5 979.1
18 17.06 штиль 0 4000 м ясно +38.3 +13.7 23 +39 +39 очень
душно
995.3 1000.0
21 17.06 штиль 0 4000 м ясно +36.1 +12.0 23 +36 +36 очень
жарко
994.7 1000.0
00 18.06 штиль 0 4000 м ясно +38.3 +13.7 23 +39 +39 очень
душно
995.3 1000.0
03 18.06 штиль 0 10 км ясно +37.2 +13.7 25 +38 +45 душно 995.7 981.3 +31.1
06 18.06 штиль 0 10 км ясно +40.0 +15.0 23 +41 +67 опасность
перегрева
998.4 1000.0
09 18.06 ЮЗ 2 10 км 5/5 1200 м
[Sc]
+41.1 +16.6 24 +43 +53 опасность
перегрева
995.2 1000.0

 

Местоположение метеостанции Сиби (Пакистан): широта 29.55 долгота 67.88 высота над уровнем моря 134 м.

В архиве по умолчанию представлена погода в Сиби за последнюю неделю. Архивные данные за месяц целиком и за предыдущие месяцы, начиная с января 2011 года, Вы можете получить, выбрав интересующий диапазон дат из раскрывающегося списка и нажав кнопку "Ввод!".


*Определитесь, кто Вы:
робот инопланетянин человек

Внимание! Время в таблицах - всемирное. Для получения местного времени необходимо прибавить поправку, которая равна 5 ч.

Смотрите также архив погоды в соседних городах и на ближайших метеорологических станциях:

Погода в Кветта Шейх Манда (Пакистан) (122 км)
Погода в Кветте (Пакистан) (124 км)
Погода в Калате (Пакистан) (139 км)
Погода в Джейкобабаде (Пакистан) (150 км)
Погода в Бархане (Пакистан) (181 км)
Погода в Суккуре (Пакистан) (222 км)
Погода в Ларкане (Пакистан) (224 км)
Погода в Хуздаре (Пакистан) (227 км)
Погода в Рохри (Пакистан) (232 км)
Погода в Мохенджо-Даро (Пакистан) (249 км)

Пояснения к столбцам:

Ветер - указаны скорость ветра в м/с - средняя за 10 мин, порывы в срок и между сроками (в фигурных скобках) и направление, откуда дует ветер: С - северный, СВ - северо-восточный, В - восточный, ЮВ - юго-восточный, Ю - южный, ЮЗ - юго-западный, З - западный, СЗ - северо-западный.
Видимость - горизонтальная дальность видимости в метрах или километрах. При видимости от 1 до 10 км при отсутствии осадков обычно наблюдается дымка, при ухудшении видимости до 1 км и менее - туман. В сухую погоду видимость может ухудшаться дымом, пылью или мглою.
Явления - указаны атмосферные явления, наблюдавшиеся в срок или в последний час перед сроком; фигурными скобками обозначены явления, наблюдавшиеся между сроками (за 1-3 часа до срока); квадратными скобками обозначены град или гололедные отложения с указанием их диаметра в мм.
Облачность - указаны через наклонную черту общая и нижняя облачность в баллах и высота нижней границы облаков в метрах; квадратными скобками обозначены формы облаков: Ci - перистые, Cs - перисто-слоистые, Cc - перисто-кучевые, Ac - высококучевые, As - высокослоистые, Sc - слоисто-кучевые, Ns - слоисто-дождевые, Cu - кучевые, Cb - кучево-дождевые. Подробнее классификацию облаков см. в Атласе облаков (PDF).
T - Температура воздуха - температура, измеренная на высоте 2 м над землей.
Td - Температура точки росы - температура, при понижении до которой содержащийся в воздухе водяной пар достигнет насыщения.
f - Относительная влажность воздуха - влажноcть воздуха, измеренная на высоте 2 м над землей.
Te - Эффективная температура - температура, которую ощущает одетый по сезону человек в тени. Характеристика душности погоды. При расчете учитывается влияние влажности воздуха и скорости ветра на теплоощущения человека.
Tes - Эффективная температура на солнце - температура, которую ощущает человек, с поправкой на солнечный нагрев. Характеристика знойности погоды. Зависит от высоты солнца над горизонтом, облачности и скорости ветра. Ночью, в пасмурную погоду, а также при ветре 12 м/с и более поправка равна нулю.
P - Атмосферное давление - приведенное к уровню моря атмосферное давление.
Po - Атмосферное давление - измеренное на уровне метеостанции атмосферное давление.
Tmin - Минимальная температура - минимум температуры воздуха на высоте 2 м над землей.
Tmax - Максимальная температура - максимум температуры воздуха на высоте 2 м над землей.
R - Количество осадков - Количество выпавших осадков за период времени, мм. При наведении курсора мыши на число - период времени, за который выпало указанное количество осадков.
R24 - Количество осадков - Количество выпавших осадков за 24 часа, мм.
S - Снежный покров - Высота снежного покрова, см. При наведении курсора мыши на число - состояние снежного покрова и степень покрытия местности в баллах.